Location: Unspecified
(49.9820°N, 20.4363°E)
Time: 04:03:13
(UTC+02:00)

Vanguard 3 - Pass Details

Date: 18 May 2026
Orbit: 507 x 3204 km, 33.3° (Epoch: 6 June)

Event Time Altitude Azimuth Distance (km) Brightness Sun altitude
Rises 19:09:41 0° 274° (W) 7,147 13.7 9.5°
Reaches altitude 10° 19:16:07 10° 263° (W) 5,997 12.9 8.6°
Maximum altitude 19:28:21 23° 221° (SW) 4,371 11.2 6.7°
Drops below altitude 10° 19:37:55 10° 176° (S) 4,571 10.7 5.3°
Sets 19:41:59 0° 162° (SSE) 5,148 10.8 4.7°
